#timestamp,LO_Frequency,Hit,StdDev 
1521543615.7,286046996.7,N
1521543635.6,286046998.8,N
1521543655.4,286047000.7,N
1521543675.2,286047000.4,N
1521543695.1,286047000.8,N
1521543696.0,286047000.8,N
1521543715.8,286047000.9,N
1521543735.7,286046999.7,N
1521543755.5,286047000.2,N
1521543775.3,286047000.2,N
1521543795.2,286046998.2,N
1521543815.0,286046998.9,N
1521543815.9,286046998.9,N
1521543835.8,286046998.7,N
1521543855.6,286047001.2,N
1521543875.4,286046998.8,N
1521543895.3,286046998.5,N
1521543915.1,286047000.6,N
1521543935.8,286047000.8,N
1521543955.7,286047000.9,N
1521543975.5,286046998.9,N
1521543995.4,286046998.7,N
1521544015.2,286046999.3,N
1521544035.0,286046998.7,N
1521544035.9,286046998.7,N
1521544055.8,286046998.7,N
1521544075.6,286046999.4,N
1521544095.5,286046998.4,N
1521544115.3,286046998.8,N
1521544135.1,286046999.3,N
1521544155.9,286046998.7,N
1521544175.7,286047000.6,N
1521544195.5,286047001.0,N
1521544215.4,286046998.8,N
1521544235.2,286046999.0,N
1521544255.1,286046999.5,N
1521544256.0,286046999.5,N
1521544275.8,286046999.2,N
1521544295.6,286046999.1,N
1521544315.5,286046996.5,Y
1521544335.3,286047000.9,P
1521544355.1,286047002.8,P
1521544375.9,286047002.2,N
1521544395.7,286046999.9,N
1521544415.6,286047000.0,N
1521544435.4,286047001.9,N
1521544455.2,286047002.6,N
1521544475.1,286047001.8,N
1521544476.0,286047001.8,N
1521544495.8,286047000.3,N
1521544515.7,286047001.6,N
1521544535.5,286047002.0,N
1521544555.3,286047001.6,N
1521544575.2,286046999.7,N
1521544595.0,286047002.4,N
1521544595.9,286047002.4,N
1521544615.8,286047000.0,N
1521544635.6,286047001.2,N
1521544655.4,286047000.9,N
1521544675.3,286047000.6,N
1521544695.1,286047000.9,N
1521544715.8,286047001.2,N
1521544735.7,286047002.8,N
1521544755.5,286047002.4,N
1521544775.4,286046999.7,N
1521544795.2,286047000.3,N
1521544815.0,286046998.1,N
1521544815.9,286046998.1,N
1521544835.8,286046998.7,N
1521544855.6,286046997.3,N
1521544875.4,286046997.3,N
1521544895.3,286046997.1,N
1521544915.1,286046997.3,N
1521544935.9,286046997.8,N
1521544955.7,286046996.4,N
1521544975.6,286046995.4,N
1521544995.4,286046993.7,Y
1521545015.2,286046994.0,P
1521545035.1,286046993.3,N
1521545036.0,286046993.3,N
1521545055.8,286046995.8,N
1521545075.7,286046994.2,N
1521545095.5,286046993.7,N
1521545115.3,286046993.9,N
1521545135.2,286046991.7,Y
1521545155.0,286047001.1,P
1521545155.9,286047001.1,N
1521545175.7,286046998.2,N
1521545195.6,286046998.4,N
1521545215.4,286046999.4,N
1521545235.3,286046998.9,N
1521545255.1,286046998.3,N
1521545275.8,286047002.8,N
1521545295.7,286047001.8,N
1521545315.5,286047002.6,N
1521545335.4,286047000.9,N
1521545355.2,286046998.9,N
1521545375.0,286046996.6,N
1521545375.9,286046996.6,N
1521545395.8,286046997.3,N
1521545415.6,286046997.8,N
1521545435.4,286046995.2,N
1521545455.3,286046995.6,N
1521545475.1,286046993.3,N
1521545495.9,286046994.7,N
1521545515.7,286046994.8,N
1521545535.5,286046994.3,N
1521545555.4,286046994.3,N
1521545575.2,286046994.6,N
1521545595.0,286046994.4,N
1521545595.9,286046994.4,N
1521545615.8,286046992.1,N
1521545635.6,286046992.2,N
1521545655.5,286046994.7,N
1521545675.3,286046994.4,N
1521545695.1,286046994.5,N
1521545715.9,286046991.9,N
1521545735.7,286046992.2,N
1521545755.6,286046991.9,N
1521545775.4,286046992.3,N
1521545795.2,286046992.4,N
1521545815.1,286046991.9,N
1521545816.0,286046991.9,N
1521545835.8,286046993.8,N
1521545855.7,286046991.8,Y
1521545875.5,286046998.4,P
1521545895.3,286046998.6,N
1521545915.2,286046998.9,N
1521545935.0,286046998.3,N
1521545935.9,286046998.3,N
1521545955.7,286047000.0,N
1521545975.6,286046998.5,N
1521545995.4,286046996.5,N
1521546015.3,286046996.8,N
1521546035.1,286046999.6,N
1521546036.0,286046999.6,N
1521546055.8,286046998.4,N
1521546075.7,286046998.7,N
1521546095.5,286046998.9,N
1521546115.3,286046998.6,N
1521546135.2,286046999.2,N
1521546155.0,286046996.7,N
1521546155.9,286046996.7,N
1521546175.8,286046996.8,N
1521546195.6,286046996.7,N
1521546215.4,286046999.3,N
1521546235.3,286046999.1,N
1521546255.1,286046997.6,N
1521546275.9,286046997.8,N
1521546295.7,286046999.6,N
1521546315.5,286046997.0,N
1521546335.4,286046999.1,N
1521546355.2,286046999.1,N
1521546375.0,286046996.5,N
1521546375.9,286046996.5,N
1521546395.8,286046997.1,N
1521546415.6,286046995.2,Y
1521546435.5,286046997.9,P
1521546455.3,286046999.1,P
1521546475.1,286046996.8,P
1521546495.9,286046997.6,N
1521546515.7,286046994.9,Y
1521546535.6,286047000.3,P
1521546555.4,286047000.3,N
1521546575.2,286046998.1,N
1521546595.1,286047002.8,N
1521546596.0,286047002.8,N
1521546615.8,286047003.7,N
1521546635.7,286047003.4,N
1521546655.5,286047004.3,N
1521546675.3,286047002.7,N
1521546695.2,286047000.9,N
1521546715.0,286047002.8,N
1521546715.9,286047002.8,N
1521546735.7,286047002.5,N
1521546755.6,286047002.3,N
1521546775.4,286046998.2,N
1521546795.3,286047001.1,N
1521546815.1,286046998.1,N
1521546816.0,286046998.1,N
1521546835.8,286047001.2,N
1521546855.7,286046998.9,N
1521546875.5,286046999.4,N
1521546895.3,286046999.2,N
1521546915.2,286046996.6,N
1521546935.0,286046999.2,N
1521546935.9,286046999.2,N
1521546955.8,286046999.3,N
1521546975.6,286046999.2,N
1521546995.4,286046999.0,N
1521547015.3,286046996.6,N
1521547035.1,286046999.2,N
1521547055.9,286046999.3,N
1521547075.7,286046997.3,N
1521547095.5,286046996.9,N
1521547115.4,286046997.8,N
1521547135.2,286046997.4,N
1521547155.0,286046997.2,N
1521547155.9,286046997.2,N
1521547175.8,286046999.0,N
1521547195.6,286047000.0,N
